Theta_e
318 316 318 319 319 320 324 328 325 324 325 322 319 318 316 317 318 317 319 318 317 319 317 315 314 314 316 317 316 318 318 321 321 318 319 323 323 323 324 323 325 325 326 335 338 340 340 341 342 342 342 341 341 341 342 343 343 342 341 341 340 339 340 340 340 339 339 339 338 338 339 338 338 338 338 336 335 335 334 334 336 338 338 338 339 339 338 337 336 335 333 329 329 326 322 323 324
319 319 320 319 320 321 325 328 327 327 326 318 315 318 315 316 318 318 320 319 318 316 315 316 315 315 316 316 315 317 316 317 318 315 317 319 321 323 323 324 326 324 325 332 336 339 339 340 341 343 342 342 341 340 342 342 343 342 341 341 340 340 339 339 339 339 339 338 338 338 338 338 338 337 336 335 335 333 332 334 336 337 337 338 339 338 337 337 336 335 333 330 331 329 326 325 325
320 321 319 319 320 321 329 328 324 328 325 316 317 321 316 316 320 320 320 318 316 314 315 316 316 317 316 318 316 316 318 316 315 315 318 318 320 323 323 325 325 325 325 329 335 338 339 338 341 342 341 342 341 339 341 342 342 342 342 341 340 340 340 339 339 339 339 338 337 337 337 338 337 336 335 335 334 332 331 333 335 337 336 337 338 336 336 336 335 334 333 330 326 325 326 327 327
320 322 318 319 322 326 343 335 328 331 322 318 318 321 323 320 321 321 320 318 316 315 317 317 316 315 314 319 316 314 318 317 314 316 322 320 320 322 324 326 325 326 326 328 332 336 338 338 340 342 341 342 340 340 340 342 342 341 342 342 341 340 340 340 340 339 338 337 337 337 337 338 337 336 335 335 333 331 330 331 333 335 336 336 336 337 336 335 334 332 332 328 321 317 319 320 324
319 321 316 318 325 325 337 329 328 330 317 321 316 316 326 324 322 322 322 318 317 318 318 317 318 314 313 317 316 317 318 317 313 313 319 321 321 322 324 325 325 326 326 328 330 333 336 337 339 341 341 341 340 340 340 341 340 340 342 342 341 340 340 340 340 340 338 336 336 338 337 337 337 334 334 333 332 332 330 330 332 334 335 336 336 336 336 334 333 331 331 326 319 321 321 319 316
318 319 316 316 318 317 324 322 321 322 317 323 317 315 322 321 322 320 321 319 317 317 315 316 317 315 315 316 314 316 316 315 315 314 317 320 323 323 324 325 324 327 328 329 330 331 333 335 338 340 341 340 340 340 339 340 340 340 340 341 341 340 340 340 339 339 339 337 335 336 336 336 335 333 334 333 332 332 330 329 331 333 335 335 336 336 335 333 332 331 331 327 324 326 326 325 315
316 318 322 320 319 319 328 326 320 321 317 316 315 317 317 316 318 317 320 319 318 315 315 317 314 315 316 314 313 313 312 314 316 318 318 320 323 323 324 324 324 326 328 331 332 331 331 333 336 339 340 340 340 339 339 339 339 340 340 340 340 340 340 340 339 338 339 338 334 335 335 334 334 334 335 334 333 332 330 329 329 333 334 335 336 335 334 333 332 331 331 329 328 329 326 326 317
317 320 325 329 331 330 335 327 322 322 316 313 314 317 318 316 314 317 321 318 318 316 317 319 315 317 315 313 316 314 312 315 318 319 319 321 322 322 323 324 325 326 329 331 333 333 330 331 334 337 338 339 340 339 339 338 339 339 340 340 339 339 339 338 339 338 338 337 335 335 336 334 333 335 337 335 334 331 330 331 330 333 334 335 335 334 333 332 332 331 331 330 328 328 322 322 315
317 318 325 332 332 332 332 323 319 319 318 316 315 318 320 318 314 317 320 317 315 316 317 316 314 317 315 314 319 315 313 314 318 322 321 322 322 322 325 326 327 327 329 332 334 335 332 332 332 335 337 339 339 339 339 338 338 339 340 339 339 339 337 338 338 338 337 337 335 335 336 334 333 335 336 336 335 331 329 332 332 332 333 334 333 332 331 330 330 330 330 329 327 325 318 314 308
317 318 325 332 330 327 324 320 319 319 318 319 317 318 319 316 315 316 318 316 313 315 315 313 314 317 316 316 317 313 313 315 320 325 323 323 322 323 326 328 329 329 331 332 334 336 335 334 332 334 336 338 338 338 338 338 338 338 339 339 338 338 337 337 338 337 336 336 335 335 335 334 333 334 336 336 336 334 330 331 332 332 333 332 330 329 329 328 329 329 327 326 325 324 321 312 300
325 327 330 334 330 322 320 322 324 324 322 320 318 318 317 314 315 316 316 315 312 315 315 313 316 318 316 317 317 313 314 317 320 325 327 326 324 324 326 327 328 329 331 332 334 336 336 336 334 333 334 337 338 338 338 338 337 337 338 338 338 338 337 336 337 338 335 336 335 335 335 334 333 334 336 336 336 335 331 331 332 331 331 330 329 329 328 328 328 328 326 326 326 325 324 315 299
327 332 338 338 329 322 321 324 325 331 330 322 316 315 314 313 315 315 316 316 314 318 317 315 315 314 317 318 315 311 313 315 317 323 327 327 326 325 324 325 327 329 331 332 333 335 336 336 336 335 334 335 337 337 338 337 337 337 338 338 338 338 337 336 335 337 335 335 335 335 335 334 334 333 335 336 336 336 334 332 332 331 329 330 330 330 330 329 328 327 327 326 326 324 323 317 302
330 332 340 329 318 321 323 322 322 328 329 319 315 313 310 312 316 315 318 318 315 318 316 313 313 313 316 316 314 312 311 312 315 319 322 325 327 327 325 325 327 328 330 332 333 334 335 336 336 336 335 335 336 336 337 337 337 336 337 338 338 337 337 335 334 335 335 334 334 335 335 335 333 333 334 335 336 336 335 334 333 332 330 331 331 331 330 329 327 327 327 325 325 324 321 317 304
332 332 336 324 314 322 322 319 321 322 319 317 317 315 312 313 315 314 316 318 317 317 312 309 311 314 314 314 318 315 309 312 317 318 319 324 326 326 325 325 326 327 329 331 333 334 334 335 336 337 336 335 335 336 336 337 337 336 336 337 338 338 337 335 334 334 335 334 334 334 335 335 334 334 334 335 336 336 335 335 334 333 332 332 331 331 330 328 327 326 326 325 324 323 321 317 305
325 328 331 326 319 322 319 318 324 323 316 317 315 313 316 313 312 315 315 316 317 313 309 308 309 313 314 313 316 312 308 314 318 319 320 324 324 325 325 325 327 327 328 330 332 335 335 336 336 337 337 337 336 336 336 336 337 336 336 337 338 338 337 336 334 334 334 334 334 334 335 334 334 334 334 334 335 335 335 335 334 334 333 333 331 331 329 327 327 326 326 325 324 322 321 317 306
318 327 331 326 321 320 319 318 323 322 317 318 314 311 316 313 311 314 312 313 315 311 311 313 309 311 313 311 310 305 306 313 317 319 320 321 322 323 323 324 326 327 329 329 331 334 336 337 337 337 337 337 337 336 336 336 337 337 336 336 337 337 337 336 335 334 333 334 334 334 335 333 333 333 332 333 333 334 334 334 334 334 334 333 331 331 329 327 326 325 325 325 324 322 321 318 308
319 331 333 322 319 320 319 320 320 319 319 320 316 313 317 316 313 312 307 309 315 314 315 315 308 308 309 306 304 303 306 310 314 316 315 315 315 316 317 318 319 322 325 326 329 331 334 336 337 338 337 337 337 336 336 336 336 336 337 336 337 337 336 336 336 336 334 333 334 333 333 333 333 332 331 332 332 332 332 333 333 333 334 333 332 331 329 328 326 325 325 324 324 323 321 319 311
331 336 327 314 316 320 320 324 321 318 318 319 316 315 317 317 317 313 309 313 316 316 317 315 309 304 303 303 302 304 306 307 310 311 309 308 308 309 310 310 311 313 315 318 322 325 330 333 335 337 337 337 337 337 336 336 336 336 337 338 338 337 336 336 336 336 336 334 334 333 332 333 333 332 332 332 332 332 332 332 332 332 333 333 332 331 330 328 326 324 324 323 323 323 322 320 314
333 332 322 316 321 320 318 324 321 317 317 318 317 314 315 314 315 313 313 318 316 316 318 316 314 309 305 304 303 303 305 306 306 306 304 303 303 303 304 306 308 309 310 312 314 317 321 326 331 334 335 336 337 337 336 336 335 335 336 338 338 336 336 337 337 336 336 335 334 333 333 332 332 331 331 331 332 332 332 331 331 332 333 333 331 330 330 328 326 324 323 322 323 323 323 322 317
325 325 323 323 326 322 318 322 320 317 315 317 318 313 314 315 313 313 314 318 316 315 316 314 315 314 308 303 300 301 302 303 303 303 301 300 301 300 301 304 306 308 310 311 311 312 313 318 324 329 333 334 335 336 337 336 335 335 335 336 338 338 337 336 336 336 336 336 335 334 333 333 333 331 330 331 332 332 332 330 331 333 331 330 330 330 330 328 327 325 323 322 322 322 323 323 320
318 321 324 322 321 320 319 323 321 317 313 315 318 314 314 314 312 314 314 316 317 315 313 312 313 312 308 303 299 299 299 300 300 300 299 299 300 301 302 303 305 308 311 312 312 312 312 313 315 321 327 332 334 334 336 336 335 335 334 335 336 338 338 338 336 334 335 335 335 335 333 334 334 332 331 331 332 331 329 328 330 333 331 330 330 330 329 328 327 326 325 323 322 322 323 323 322
317 320 322 322 320 317 319 324 322 317 313 314 317 315 313 312 312 316 316 315 315 311 308 308 308 305 303 302 299 298 298 298 298 298 298 298 299 300 302 304 307 310 313 314 315 315 314 313 313 314 318 325 331 333 334 335 334 334 334 334 335 334 334 336 336 334 335 335 335 336 334 334 334 334 333 332 332 329 327 327 329 330 330 331 331 331 329 328 328 327 325 322 321 323 323 323 322
318 319 319 322 320 317 319 321 319 316 314 316 316 312 312 313 313 315 315 314 310 303 301 302 301 299 299 298 298 298 298 298 297 297 297 297 298 299 301 304 307 310 313 315 316 318 317 316 315 313 314 317 325 330 331 332 332 333 333 334 335 334 331 332 332 331 333 335 336 336 334 334 333 333 333 333 332 329 329 330 329 330 331 333 332 330 328 328 328 326 324 322 321 323 324 323 322
321 321 320 320 316 318 319 318 318 316 315 315 312 308 311 314 312 312 312 309 303 299 299 299 298 298 298 298 297 297 297 297 297 297 297 297 298 299 301 304 306 309 311 314 317 319 320 320 319 316 314 314 319 327 329 330 332 333 333 335 333 333 333 331 332 331 331 334 336 336 333 333 334 333 332 333 333 329 331 330 328 329 330 331 332 330 328 328 327 326 324 323 323 325 324 323 322
322 320 322 318 316 320 318 315 317 316 314 311 309 310 313 314 311 310 310 304 300 299 298 297 298 297 297 297 297 297 297 297 296 297 297 298 299 301 303 305 307 310 311 313 317 319 320 322 322 320 317 315 317 324 328 329 331 333 333 334 334 333 331 330 331 330 329 331 334 334 333 333 334 333 332 334 332 328 330 330 328 328 326 328 330 329 329 329 328 326 325 324 325 325 324 323 322
320 319 322 319 316 317 314 314 316 314 312 310 310 314 314 310 309 310 307 302 300 299 299 298 298 298 297 296 296 297 296 296 296 296 297 298 300 302 304 306 308 309 311 313 316 318 320 322 323 323 322 320 319 323 328 330 331 332 331 332 333 331 329 329 331 331 330 331 331 331 331 332 334 333 333 334 332 329 330 330 330 328 327 327 328 329 330 329 329 327 325 325 326 324 322 321 322
317 318 319 317 315 315 314 315 316 313 312 311 311 315 312 307 310 312 306 300 301 302 302 298 298 299 296 296 296 296 296 295 296 295 296 298 299 300 302 305 307 308 311 314 317 318 320 321 323 323 324 324 323 325 327 329 329 330 331 331 331 331 330 330 331 331 331 331 330 331 330 330 332 332 332 331 330 329 329 329 328 328 327 327 328 329 329 329 329 327 325 326 325 322 320 320 322
314 314 315 317 317 316 315 315 313 312 312 311 311 313 311 308 311 312 304 299 302 307 305 298 298 298 296 296 296 296 296 295 295 295 295 296 296 297 299 302 305 308 312 314 317 319 320 321 323 324 325 325 326 327 327 329 329 329 330 330 330 330 329 329 329 329 329 330 330 330 330 331 331 331 331 330 329 328 327 327 327 327 327 328 329 329 328 328 328 327 327 327 325 321 320 321 322
312 313 314 318 319 317 315 313 312 312 313 312 312 314 315 312 311 308 302 301 304 307 305 300 299 297 296 296 295 295 295 295 295 294 295 295 295 296 298 300 302 306 310 313 317 318 320 321 323 324 325 325 326 327 328 328 329 329 330 329 329 329 328 328 327 327 328 329 328 330 331 330 330 331 331 330 329 329 328 327 327 327 327 328 328 327 327 327 327 328 327 327 325 322 321 323 322
312 311 313 316 318 320 314 310 312 313 313 311 311 317 321 317 310 304 303 303 307 311 306 301 300 298 297 296 295 296 294 294 294 294 295 295 296 296 298 300 301 305 308 312 316 318 320 321 323 324 324 326 326 327 327 327 328 328 328 327 327 327 327 326 325 325 325 326 326 328 329 327 329 329 329 329 329 328 327 327 327 327 327 327 326 325 325 326 327 327 326 326 325 323 323 323 323
315 311 317 320 316 323 321 313 315 315 311 310 311 318 321 316 309 305 302 302 309 315 307 302 302 299 297 296 295 295 294 294 294 294 295 295 296 297 298 300 301 305 307 311 315 317 319 321 322 323 324 325 325 326 326 326 326 325 326 325 324 325 324 323 323 323 323 324 324 325 325 325 326 326 326 326 327 327 326 326 326 327 327 327 326 326 325 325 326 325 323 323 323 323 323 323 322
323 314 323 325 316 325 327 315 316 315 311 311 313 318 319 314 309 305 301 302 310 315 309 303 302 299 297 296 294 295 294 294 294 294 295 295 296 297 298 299 301 304 307 310 312 315 319 320 321 322 323 324 324 324 324 324 324 323 324 323 322 323 322 322 321 321 322 322 322 322 322 323 323 324 324 324 324 325 325 325 325 324 325 326 325 324 324 324 323 323 322 320 320 321 322 322 321
326 316 322 328 319 321 322 315 314 313 311 312 313 317 319 314 308 304 302 304 310 316 310 303 301 298 296 295 294 294 294 294 294 294 294 296 296 297 298 299 301 303 305 309 310 313 317 318 320 321 321 322 322 322 322 322 322 321 321 320 321 321 320 320 318 318 319 318 318 317 318 319 320 321 321 321 321 321 322 322 322 322 323 323 322 322 323 322 321 320 319 318 318 318 318 319 319
325 316 318 324 319 317 319 319 315 310 312 314 313 314 316 313 307 306 304 303 310 317 312 302 299 297 296 295 294 294 293 293 293 292 293 295 296 297 298 299 300 302 304 307 309 311 314 316 318 319 320 320 320 320 320 320 319 319 318 317 318 317 317 316 315 316 316 316 315 314 315 316 316 317 317 317 317 318 318 319 319 320 320 319 319 320 320 319 318 317 317 317 317 317 317 316 317
330 322 319 322 319 317 319 320 316 313 315 317 316 316 317 314 310 309 304 301 310 316 307 300 298 297 296 295 295 294 293 293 292 292 292 294 295 296 297 299 300 302 304 307 308 310 312 313 314 316 318 318 318 319 318 318 317 316 315 315 315 313 312 312 313 314 313 312 312 311 312 312 312 312 313 313 314 315 315 316 317 317 316 316 316 317 317 316 316 315 315 315 314 315 314 314 314
329 327 326 326 322 319 319 319 316 313 315 319 319 318 319 316 314 313 304 301 308 308 301 298 298 297 297 295 295 295 293 293 292 292 292 293 294 295 297 298 299 301 303 305 308 310 311 310 312 314 314 314 316 316 316 316 316 315 314 313 311 308 308 310 310 310 309 308 308 308 309 308 308 308 309 310 310 311 312 312 313 313 313 314 314 314 314 314 314 314 314 313 313 312 312 311 310
323 326 327 327 324 321 319 318 315 312 314 320 318 316 318 315 315 314 305 302 305 304 301 300 299 297 297 296 296 295 294 293 292 292 292 292 293 295 296 297 299 301 303 305 307 308 309 310 311 311 310 311 313 313 314 314 313 312 311 308 305 304 305 306 306 305 305 305 305 306 306 305 306 306 307 307 307 308 308 308 308 308 309 310 311 309 309 310 311 312 312 311 311 310 309 307 306
318 322 322 322 323 321 318 315 314 313 314 319 315 314 316 313 315 313 305 305 306 303 301 300 299 298 297 297 296 295 295 293 292 292 292 292 293 294 295 297 299 300 301 303 305 305 307 309 309 308 308 310 311 310 310 310 308 307 306 303 301 301 301 302 301 301 301 301 301 302 302 302 303 303 303 303 304 304 304 304 304 304 304 305 305 305 305 306 307 308 308 308 308 307 305 302 303
315 320 318 318 318 319 318 315 312 311 313 320 316 314 315 313 316 311 304 306 304 299 300 300 299 299 298 297 296 296 296 295 293 291 291 291 292 293 294 295 296 297 299 301 302 303 305 306 306 306 306 307 307 306 307 305 304 303 302 301 300 300 299 299 299 298 299 299 299 299 299 299 300 300 300 300 300 300 300 301 301 301 301 302 302 303 303 303 303 303 304 305 304 304 302 300 301
314 317 316 317 316 318 322 318 313 311 311 315 314 314 314 313 315 309 301 301 300 297 299 299 298 299 298 297 296 296 296 295 294 292 290 290 291 292 293 293 294 296 298 299 300 301 302 303 304 304 304 304 303 303 303 302 301 301 301 300 299 298 297 297 298 297 298 298 298 298 298 298 298 298 298 298 298 298 298 298 298 298 298 299 299 300 300 300 300 300 301 302 303 302 300 299 299
316 316 314 316 317 318 321 318 315 316 313 311 311 316 320 318 318 312 302 299 299 298 298 298 297 297 296 296 296 296 295 295 295 293 291 290 290 290 291 291 293 295 297 298 299 300 301 301 302 303 303 302 302 301 301 301 301 300 299 299 298 297 297 297 297 296 296 297 297 297 297 297 297 297 297 297 297 297 296 296 296 296 296 296 296 296 296 296 297 297 298 299 300 300 299 299 298
319 319 315 314 316 318 320 317 316 320 321 313 311 321 331 328 323 316 306 302 301 299 298 298 298 297 296 297 296 295 295 294 293 292 290 289 289 289 290 290 291 293 294 296 298 299 300 301 301 302 302 301 301 301 301 301 300 300 299 299 298 297 294 292 292 292 293 293 293 293 294 293 294 293 293 293 293 293 293 293 294 294 294 294 294 294 294 294 294 295 295 296 296 297 298 298 297
322 322 317 313 314 317 320 318 318 324 325 314 309 319 330 327 324 319 308 304 304 301 300 299 298 297 297 297 297 296 295 294 293 291 290 289 289 289 289 290 290 291 292 293 296 298 299 300 300 301 301 300 300 300 300 300 300 299 299 297 295 293 290 286 287 288 288 289 289 289 289 289 289 289 289 289 289 289 289 289 289 290 290 289 290 290 291 291 291 292 292 293 293 293 294 295 294
326 319 317 317 315 319 320 318 320 323 321 315 312 316 321 321 321 317 306 307 309 304 302 300 298 298 298 297 297 297 296 296 295 293 290 289 289 288 288 289 289 289 290 292 295 297 298 299 299 300 300 299 299 299 299 299 299 298 296 294 291 289 287 286 285 286 286 287 287 287 287 287 287 287 287 287 287 287 287 287 287 287 287 287 287 287 287 288 288 288 288 288 289 289 290 291 292
324 313 313 317 316 319 320 319 320 317 315 320 319 314 317 323 322 314 306 311 317 312 305 301 299 298 298 298 297 297 296 295 294 293 291 289 289 288 288 288 288 289 290 292 294 296 297 298 298 298 298 298 298 298 298 297 296 295 294 292 289 286 286 286 286 286 286 286 286 286 286 286 286 286 286 286 286 286 286 286 286 286 286 286 286 286 286 286 286 286 286 286 286 286 286 287 288
315 308 311 314 314 316 317 318 319 314 314 323 323 315 318 326 326 318 311 315 320 316 306 301 300 298 297 298 297 297 297 295 292 290 290 289 288 288 288 288 288 289 289 291 293 294 296 296 297 297 296 296 296 296 296 295 294 293 292 291 289 286 286 286 286 286 286 286 286 286 286 286 286 286 286 286 286 286 286 286 286 286 285 285 285 285 285 286 285 285 285 285 286 286 285 285 286
310 312 316 316 318 318 318 319 317 316 320 324 321 316 316 322 327 321 316 317 319 318 310 302 299 299 298 297 297 296 296 296 293 290 289 289 288 288 288 288 288 288 288 289 291 292 293 294 295 295 293 293 293 293 293 293 292 292 291 290 288 287 287 287 286 286 286 286 286 285 285 285 285 285 285 285 285 285 285 285 285 285 285 285 285 285 285 285 285 285 285 285 285 285 285 285 285
311 322 321 319 322 319 319 323 318 319 327 324 314 313 314 319 327 323 317 315 314 317 319 309 300 299 298 296 296 296 296 296 295 292 290 289 288 288 288 288 287 287 288 288 289 290 291 291 293 293 291 290 291 291 291 291 290 290 289 289 288 287 287 287 287 286 286 286 285 285 285 285 285 285 285 285 285 285 285 285 285 285 285 284 284 284 284 284 284 284 284 284 284 284 284 284 284
314 323 321 324 326 321 322 325 320 322 324 316 310 312 314 316 322 323 319 317 313 312 313 307 301 298 297 296 296 296 296 296 295 294 291 288 288 288 287 287 287 287 287 287 288 289 289 290 291 291 289 288 289 289 289 289 288 288 288 288 287 287 287 287 286 286 286 286 286 285 286 285 285 285 285 285 284 284 284 284 284 284 284 284 284 284 284 284 284 284 284 284 284 284 284 283 283
314 319 321 327 327 326 331 326 320 322 319 310 309 313 315 317 317 318 317 313 308 304 302 301 300 298 297 296 296 296 296 295 295 294 291 288 288 288 287 287 286 286 287 286 287 288 288 289 289 289 288 287 288 288 288 288 287 287 287 287 287 287 287 286 286 286 286 286 286 286 285 285 285 285 284 284 284 284 284 284 284 284 284 284 284 284 284 284 284 284 284 284 283 283 283 283 283
313 317 319 323 326 330 333 328 327 328 320 312 309 314 322 321 315 310 306 302 299 299 298 298 299 298 297 297 296 296 296 294 294 293 291 288 288 288 287 287 286 286 286 286 287 287 288 288 288 288 287 287 287 287 287 287 287 286 286 286 286 286 286 286 286 286 286 286 286 285 285 285 284 284 284 284 284 284 284 284 284 284 284 284 284 284 284 284 284 284 283 283 283 283 283 283 283
313 315 317 321 325 326 323 319 321 322 321 318 313 317 322 317 311 304 300 300 299 298 298 298 299 298 297 297 296 295 295 294 293 293 291 289 289 288 287 287 286 286 286 286 286 287 287 287 287 287 287 286 287 286 287 286 286 286 286 286 286 286 286 286 286 285 285 285 285 285 285 284 284 284 284 284 284 284 284 284 284 284 284 284 283 284 284 283 283 283 283 283 283 283 283 283 283
314 313 319 319 317 323 323 315 311 312 320 321 316 318 318 314 314 309 304 306 304 299 299 300 300 297 297 297 296 295 295 294 293 293 291 289 289 289 288 287 286 286 286 286 286 286 287 287 287 287 286 286 286 286 286 286 286 286 286 286 286 286 286 286 285 285 285 285 285 285 284 284 284 284 283 283 283 283 283 283 283 283 283 283 283 283 283 283 283 283 283 283 283 283 283 283 283
316 317 320 315 311 319 324 320 317 317 322 322 318 319 319 317 319 313 307 311 310 303 300 300 298 296 296 297 296 295 295 294 293 292 290 289 289 289 288 287 286 286 286 286 286 286 286 286 287 286 286 286 286 286 286 286 286 286 285 285 285 285 285 285 285 285 285 285 284 284 284 284 284 283 283 283 283 283 283 283 283 283 283 283 283 283 283 283 283 283 283 283 283 283 283 283 283
315 318 316 316 320 322 320 321 324 323 324 324 321 318 317 318 319 315 311 313 313 307 301 299 299 297 296 296 296 295 295 294 294 292 290 288 289 289 288 287 287 286 286 286 286 286 286 286 286 286 286 286 286 286 286 285 286 285 285 285 285 285 285 285 285 285 284 284 284 284 284 284 284 284 284 284 284 284 284 284 284 283 283 283 283 283 283 283 283 283 283 283 283 283 283 283 283
310 312 311 314 321 322 320 320 321 323 323 323 323 319 318 319 318 317 316 315 312 309 306 303 300 297 296 296 296 295 295 294 293 292 290 288 289 289 288 287 287 286 286 286 286 286 286 286 286 286 285 285 285 285 285 285 285 285 285 285 285 285 285 285 285 284 284 284 284 284 284 284 284 284 284 284 284 284 284 284 284 283 283 283 283 283 283 283 283 282 282 282 283 283 283 283 283
311 313 313 313 315 317 319 318 317 323 324 324 323 320 318 319 315 316 318 314 308 309 310 306 299 296 296 296 296 296 295 294 293 292 290 289 289 289 288 287 287 286 286 286 286 286 286 286 286 286 286 285 285 285 286 286 285 285 285 285 285 285 285 285 284 284 284 284 284 284 284 284 284 284 284 284 284 284 284 283 283 283 283 283 282 282 282 282 282 282 282 282 282 282 282 282 282
313 314 314 314 314 317 319 318 317 319 321 324 323 321 320 317 309 309 313 310 306 305 306 304 299 297 296 295 296 295 295 294 293 292 290 288 289 289 288 287 287 286 286 286 286 286 286 286 286 286 286 286 286 285 286 286 285 285 285 285 285 285 285 285 285 285 285 285 285 285 285 285 284 284 284 284 284 283 283 283 283 282 282 282 282 281 281 281 281 281 281 281 281 281 281 281 281
Wind_Speed
8 8 8 8 8 5 3 4 2 2 3 2 1 1 1 1 1 1 2 2 1 2 2 1 2 1 1 1 2 3 3 2 3 2 1 3 2 3 13 6 2 9 18 23 26 26 23 23 20 18 16 15 16 15 13 12 12 10 9 8 8 8 9 9 8 8 8 8 8 8 8 7 7 7 6 6 5 6 6 5 5 6 6 6 6 6 7 8 8 7 7 7 5 5 5 5 5
9 7 8 6 7 4 1 2 3 2 4 3 1 1 2 2 1 1 1 1 2 3 2 2 2 0 1 1 2 2 1 3 3 2 1 2 3 2 11 7 2 7 17 21 25 26 24 23 21 19 17 16 16 16 14 13 12 10 9 8 8 7 8 9 8 8 8 8 8 8 7 7 7 6 6 5 4 4 5 5 4 5 5 5 6 6 6 7 7 5 6 7 5 4 3 3 3
9 6 7 5 4 4 1 3 3 1 3 3 2 2 1 1 2 4 4 4 4 3 2 1 1 1 1 2 1 3 1 3 2 2 2 2 3 2 8 9 3 6 16 20 23 25 24 23 21 20 18 16 16 16 15 13 12 10 9 8 8 7 8 8 7 7 7 8 8 8 8 7 6 5 5 4 3 3 5 4 4 5 4 4 5 6 6 6 6 5 6 7 7 6 6 6 6
8 6 8 2 2 4 3 4 2 2 3 2 1 2 1 2 3 4 5 5 5 3 1 1 1 1 2 2 1 2 2 3 1 3 1 4 4 2 8 10 4 7 15 18 21 24 24 22 21 19 17 16 15 16 15 14 12 10 10 9 8 8 8 7 7 6 7 8 8 8 8 7 6 5 5 3 2 3 5 4 4 4 3 3 4 5 5 6 7 7 8 8 8 10 10 10 9
5 5 7 1 2 2 2 3 2 3 2 3 2 2 3 4 3 4 5 4 4 2 1 1 1 1 1 1 1 1 2 1 2 2 1 5 5 1 9 10 5 7 13 16 18 22 23 21 20 19 17 15 15 15 15 14 12 11 10 9 8 8 7 7 7 6 6 8 9 8 8 7 6 5 4 2 1 2 4 4 4 3 3 4 6 6 6 7 8 8 9 9 9 12 14 14 12
4 4 8 6 3 1 2 3 3 3 2 4 3 2 3 4 4 4 5 5 3 2 0 1 1 1 0 2 1 2 1 1 4 3 2 5 5 3 9 9 5 6 12 14 15 20 21 21 20 20 18 16 15 14 15 14 12 11 10 9 8 7 7 6 6 6 6 6 8 8 8 7 5 4 3 2 2 2 3 3 4 3 3 5 7 8 8 8 7 7 7 9 12 15 16 16 14
5 2 4 6 3 2 3 3 3 2 1 3 2 3 4 3 3 3 5 2 1 1 1 1 0 1 0 3 1 2 2 3 4 4 6 6 4 3 8 8 4 5 11 13 13 17 20 21 20 20 19 16 15 14 14 13 13 12 10 10 8 7 7 6 6 6 6 5 6 6 6 5 4 3 2 1 2 3 3 4 4 3 4 6 7 6 6 7 6 5 5 9 14 16 17 16 14
6 2 0 4 2 3 3 3 2 2 0 2 3 4 4 3 3 0 3 1 0 1 1 2 1 2 1 2 1 2 3 5 6 6 6 4 2 3 7 7 3 3 9 12 12 14 17 20 20 20 19 17 16 14 14 13 13 12 10 10 9 8 7 6 6 6 6 6 5 5 4 3 3 3 3 1 2 3 3 4 4 3 4 6 5 3 3 6 6 5 5 9 13 15 16 15 11
6 4 0 3 2 3 2 1 1 2 2 3 3 4 5 3 3 1 2 2 1 2 3 3 1 2 2 2 1 3 5 9 7 4 3 3 3 4 6 5 1 0 6 10 10 11 14 18 19 20 19 17 16 15 14 13 13 13 11 10 10 9 7 7 6 6 7 7 6 5 4 3 3 4 4 2 0 2 3 4 4 3 4 4 2 3 4 6 7 7 7 10 13 14 15 13 9
5 4 1 3 3 2 2 0 0 1 3 4 3 5 4 2 3 1 1 2 1 2 3 1 1 2 1 2 2 2 8 9 5 5 5 5 4 4 4 3 1 1 3 7 8 9 11 14 17 19 19 18 17 16 14 13 13 14 12 11 10 9 9 9 8 8 9 9 8 7 6 5 5 5 5 4 2 1 2 4 4 4 3 3 2 4 6 7 7 7 9 11 12 14 15 14 9
3 4 2 3 3 2 2 2 2 2 4 3 2 5 4 3 2 1 1 2 1 3 3 2 2 2 1 2 1 3 9 10 8 7 5 4 3 3 2 2 1 1 3 5 6 7 8 11 15 17 19 18 17 16 16 14 13 13 13 12 11 10 9 10 9 9 10 10 9 8 7 6 6 6 6 5 3 2 3 4 4 3 3 2 3 5 6 7 6 6 9 11 12 14 15 13 9
2 3 3 4 2 2 3 3 3 4 5 3 1 3 2 3 2 1 2 2 2 3 3 1 0 2 1 2 1 4 13 16 12 8 5 3 2 2 1 2 2 2 4 4 5 6 7 8 11 15 18 19 18 17 17 16 14 13 14 13 11 10 10 10 10 9 10 10 10 9 8 7 7 6 7 6 5 4 4 5 5 4 3 2 3 5 6 6 7 8 9 11 12 14 14 12 8
3 1 4 3 2 2 2 2 3 3 3 1 1 1 2 3 1 3 3 2 1 3 2 3 1 1 0 1 1 3 11 18 13 6 6 4 3 3 2 1 1 2 3 4 5 5 6 7 9 12 16 18 19 18 17 17 16 15 15 15 13 12 12 11 10 10 10 9 10 10 9 9 8 7 7 6 6 6 5 6 6 5 3 1 2 3 5 7 8 10 10 11 12 13 14 11 7
3 2 4 3 0 1 3 1 1 2 0 2 2 2 1 1 2 4 3 2 3 1 1 2 3 2 0 2 2 2 9 17 11 6 5 4 3 3 3 3 2 1 1 2 4 5 6 6 7 9 12 16 19 19 19 18 18 17 16 16 15 14 13 13 11 11 11 10 11 12 11 10 9 9 8 7 6 7 6 6 6 5 3 1 1 4 7 9 9 10 11 12 12 13 14 10 6
3 2 4 4 1 1 2 1 1 4 2 2 1 2 2 1 2 2 2 1 3 2 1 1 3 0 0 1 1 4 12 16 10 6 4 2 2 2 3 4 4 3 2 1 2 5 6 7 7 8 10 13 16 19 20 20 19 18 18 17 17 16 15 15 13 12 12 11 11 13 12 11 11 11 10 8 6 6 6 5 6 5 4 2 2 5 8 9 9 10 11 12 13 14 14 10 7
3 3 4 3 1 1 3 2 2 3 2 3 1 0 2 3 2 1 3 2 3 2 3 2 2 1 1 2 2 7 13 12 7 4 2 2 3 3 3 4 4 3 2 1 2 5 7 8 9 9 10 11 13 17 20 21 20 19 18 18 18 17 17 16 14 13 12 13 13 13 13 12 12 12 11 9 7 6 5 5 6 6 6 4 4 7 7 8 10 10 11 12 13 14 14 10 7
3 3 5 3 2 3 4 3 3 3 2 3 2 2 3 3 2 1 1 2 2 4 4 3 0 4 4 3 5 9 10 8 4 2 4 6 6 5 4 5 4 2 2 2 1 4 7 10 11 11 12 12 12 14 17 20 21 20 18 18 18 17 17 16 15 14 13 13 14 13 13 13 13 12 12 10 9 8 5 5 6 7 7 6 5 7 8 10 10 9 10 12 14 15 15 12 8
4 3 3 2 2 2 4 6 6 2 0 2 2 1 3 2 5 2 1 3 3 4 5 4 3 6 8 8 9 11 11 11 9 9 12 15 14 13 12 11 9 6 5 2 2 3 6 9 11 12 13 13 13 13 15 17 19 20 19 18 18 17 17 16 16 15 14 14 14 14 13 13 14 13 12 11 10 10 6 5 6 9 9 7 7 7 8 10 8 8 10 12 14 15 16 15 10
3 3 3 1 5 3 4 6 5 2 1 2 1 1 1 0 3 2 2 4 4 5 6 5 4 2 7 13 15 15 15 17 17 18 20 20 19 18 17 16 14 12 9 6 4 5 6 8 10 12 13 13 14 14 14 15 17 19 19 19 19 17 16 17 16 16 15 15 15 15 13 14 14 14 14 13 12 11 8 6 8 10 10 8 8 6 7 8 6 8 10 11 13 15 16 16 12
1 3 3 3 5 2 3 5 5 4 2 1 1 1 1 2 3 2 2 6 5 2 3 2 3 4 5 10 14 17 18 22 22 22 22 20 19 18 17 17 16 15 13 11 7 6 7 9 10 12 13 13 13 14 15 15 16 17 17 18 18 17 16 17 16 16 16 15 15 15 14 15 15 15 15 15 14 11 8 7 9 13 11 9 9 8 8 7 8 11 11 11 12 14 15 15 14
2 3 3 4 2 1 3 5 6 4 3 3 1 2 3 3 2 1 1 4 6 1 2 1 2 3 3 5 10 16 18 21 22 23 21 19 18 18 17 15 14 14 13 12 9 7 6 8 11 13 14 15 13 12 13 15 16 15 15 15 16 16 16 16 15 16 16 15 16 16 15 16 17 16 16 16 14 12 10 9 11 14 12 11 11 10 8 6 9 11 10 11 13 14 14 15 14
1 0 3 4 4 1 4 4 4 4 3 4 2 1 2 1 1 3 5 3 4 1 2 2 2 2 3 4 7 12 16 17 19 20 19 18 19 19 18 16 15 14 13 13 11 8 6 6 9 13 14 15 14 11 11 14 14 15 15 14 14 13 13 14 14 15 17 17 18 17 16 17 18 17 17 16 14 12 11 11 11 13 14 14 14 11 8 6 10 10 8 12 14 13 14 14 14
0 1 1 3 4 3 3 2 3 5 4 2 3 2 0 1 3 3 6 4 1 2 2 3 5 4 4 6 8 9 11 12 14 16 16 17 18 18 19 18 17 16 16 15 13 10 8 5 6 9 12 14 14 12 10 11 12 12 13 12 13 12 10 11 12 12 15 18 20 19 18 18 19 18 19 16 13 12 12 12 12 14 17 17 16 13 10 9 9 8 8 11 13 12 13 13 14
3 1 2 2 4 4 3 1 2 5 4 4 3 1 1 2 3 1 3 1 2 2 3 6 7 8 7 8 9 8 9 11 12 13 14 15 16 16 17 18 17 17 17 17 15 12 10 8 5 3 6 9 11 11 8 8 9 10 10 10 8 8 8 7 8 9 9 13 17 18 17 17 19 20 21 19 14 13 14 13 12 12 14 16 17 13 11 9 7 7 8 11 11 10 11 13 14
2 2 2 1 3 5 4 3 4 5 5 3 3 1 6 6 3 1 2 2 3 3 5 6 6 8 9 9 9 8 9 11 12 13 14 15 15 15 16 18 17 18 19 19 18 15 13 12 9 5 2 5 8 9 6 6 7 7 8 9 5 5 8 6 6 9 8 10 11 11 11 11 16 20 21 20 18 15 15 15 11 9 11 13 15 13 12 9 8 8 7 11 10 8 10 13 14
2 3 1 1 3 5 4 4 5 5 4 3 3 2 4 3 2 1 2 4 2 3 5 5 5 7 8 7 8 9 9 11 12 12 13 14 15 17 17 18 18 18 19 18 18 16 14 14 13 10 8 6 7 10 8 6 6 6 5 4 3 3 5 3 5 7 7 8 9 8 7 5 8 14 16 16 16 13 11 13 11 10 12 12 13 15 15 11 9 9 9 10 8 7 10 12 13
2 2 2 3 5 6 2 4 4 3 3 4 4 3 2 2 1 1 1 4 3 5 6 5 6 7 7 6 7 9 10 11 12 12 14 16 17 18 17 17 17 17 17 18 18 17 15 15 15 14 13 12 11 11 11 7 6 5 3 2 1 1 1 2 3 4 4 4 5 6 4 3 5 8 8 8 7 6 7 9 11 12 12 12 13 15 15 13 10 10 10 8 4 6 7 8 11
1 2 4 5 6 6 2 3 5 2 1 5 6 3 1 1 1 2 2 3 3 6 6 6 6 5 5 5 6 8 9 11 14 14 15 17 16 17 16 16 16 16 17 17 17 16 15 16 16 15 15 15 14 13 12 11 9 8 7 5 3 1 2 2 1 1 3 3 4 4 3 2 5 5 3 2 3 4 5 7 10 9 8 8 11 13 14 15 11 10 12 8 2 4 5 6 9
1 3 3 7 8 6 4 3 3 3 0 4 5 1 3 2 2 1 1 3 4 6 5 5 4 3 3 4 4 6 8 12 15 16 15 15 15 14 15 14 14 14 16 16 17 16 16 17 17 16 16 16 16 16 15 13 12 10 9 8 7 5 5 5 3 3 4 2 2 3 3 3 4 3 1 1 2 4 5 6 7 6 5 7 10 12 13 15 12 12 14 10 5 3 5 5 7
1 3 2 5 7 5 5 2 4 3 0 1 1 2 4 5 4 1 2 4 3 5 4 3 3 3 3 3 3 4 8 11 13 15 16 15 15 14 14 14 13 14 15 16 18 18 18 19 19 18 18 18 18 18 17 17 15 14 13 12 11 9 8 9 9 11 11 9 6 3 2 4 3 2 2 2 2 3 5 6 5 5 5 6 8 9 10 12 12 13 13 11 9 8 8 7 7
1 2 2 2 2 5 6 2 4 3 1 2 2 2 4 4 3 2 1 3 3 3 3 2 2 3 2 2 3 3 6 10 12 14 15 15 14 14 14 14 14 14 15 17 19 20 19 20 21 21 21 21 21 20 20 20 18 17 16 15 14 14 13 14 15 15 15 14 12 11 9 6 5 3 3 4 5 5 6 6 5 4 4 5 6 7 9 10 11 12 12 11 11 11 10 9 9
3 1 3 2 1 5 8 3 0 1 2 4 3 2 4 5 4 4 2 2 3 3 1 2 2 3 3 2 3 3 4 9 13 15 14 14 14 14 14 14 14 14 15 17 19 20 21 22 22 22 22 22 23 22 21 21 20 19 20 19 17 16 16 17 17 17 16 16 16 16 16 14 11 8 6 4 3 3 5 5 4 4 4 5 7 7 8 8 9 11 11 11 10 10 10 9 9
3 0 3 3 2 3 5 2 1 1 1 4 2 2 3 2 4 4 3 1 3 4 2 0 1 2 3 2 3 3 4 7 11 14 14 13 13 13 13 14 14 14 15 16 19 21 23 23 22 23 23 24 23 23 21 21 21 21 22 22 20 19 18 19 19 19 19 19 19 20 19 18 16 15 13 10 8 7 5 4 4 5 5 5 5 4 5 6 7 8 9 9 8 8 9 8 9
3 1 2 4 3 3 3 2 2 3 2 1 3 1 5 3 4 3 4 2 3 4 3 1 1 2 2 2 3 4 4 5 7 12 13 11 11 11 12 13 14 14 15 16 18 21 23 24 24 25 25 25 24 24 23 24 24 23 24 23 22 21 22 22 22 20 20 20 21 21 20 19 19 18 17 15 15 14 13 12 10 8 7 5 4 3 3 4 4 5 6 6 6 7 7 9 10
4 3 2 3 3 4 4 3 2 3 3 2 3 3 8 7 4 1 5 2 3 4 3 1 2 2 2 3 3 4 4 4 6 10 11 10 10 11 12 13 14 15 16 16 18 20 22 24 25 26 25 25 24 24 24 24 24 24 24 23 23 24 23 23 22 20 20 21 21 20 19 19 19 18 18 17 17 17 16 16 15 13 11 9 8 7 6 5 5 5 5 6 6 6 6 8 9
7 6 4 4 4 4 4 4 4 2 3 4 4 5 9 10 5 1 3 2 2 2 1 2 2 2 2 3 3 3 3 3 6 10 10 10 10 11 12 13 15 16 16 17 18 20 21 23 24 25 26 25 25 25 24 23 23 23 23 22 23 25 23 22 21 20 20 20 20 19 18 18 18 18 18 17 17 17 17 17 16 15 13 10 10 10 10 8 7 7 7 7 7 7 8 9 9
6 5 4 4 5 5 3 2 4 1 1 5 5 6 9 11 8 1 2 2 2 1 1 2 2 2 2 2 2 3 3 3 6 9 10 10 10 11 12 13 15 17 18 18 18 19 20 20 22 23 24 23 23 22 22 22 22 22 23 24 25 26 24 22 22 21 21 21 19 18 18 18 17 16 16 16 17 17 18 17 16 16 14 12 12 13 12 10 9 8 8 8 8 8 10 10 11
5 4 4 3 4 6 4 1 4 2 2 4 1 2 9 10 7 2 1 1 1 0 0 1 1 1 1 2 2 3 2 3 6 9 11 11 11 12 12 13 15 17 19 20 20 20 20 20 21 21 21 20 20 20 20 22 23 23 25 27 27 27 26 25 25 25 23 22 21 20 20 19 18 18 18 17 17 17 17 18 18 18 17 16 15 14 14 13 12 11 10 9 9 10 11 12 12
3 3 3 3 3 3 5 2 3 2 3 3 3 3 9 9 4 0 1 1 1 1 1 2 1 1 1 1 1 2 2 3 4 7 10 11 11 12 13 14 15 17 18 20 20 20 21 21 22 22 21 21 21 21 21 23 25 25 26 27 27 27 28 27 27 27 24 24 24 23 23 22 21 21 21 20 20 19 19 19 19 18 18 17 16 16 16 16 16 15 14 12 11 11 11 12 13
3 3 3 4 3 2 3 3 2 1 2 1 2 4 9 6 2 1 1 1 2 1 2 2 2 2 1 1 1 0 1 2 2 4 8 10 10 11 12 13 13 15 17 19 20 20 21 22 22 23 23 23 23 23 23 25 26 26 27 27 27 29 29 27 26 27 26 26 26 25 25 24 23 23 22 21 21 21 20 20 19 19 19 18 18 18 19 19 19 18 17 15 13 13 13 14 14
4 5 6 5 4 5 6 3 2 2 3 1 1 4 7 4 2 3 1 1 1 1 2 2 1 1 1 1 1 1 1 0 1 2 4 7 9 9 10 11 12 15 16 17 18 19 20 21 22 23 23 24 25 25 25 25 26 27 28 28 28 28 28 26 27 28 27 27 27 27 26 24 23 24 23 23 23 22 22 22 21 21 21 21 21 21 21 21 20 19 19 17 16 15 14 14 14
4 6 10 9 7 7 5 1 3 2 3 1 2 1 4 4 4 5 2 1 1 1 1 1 1 1 1 2 1 1 1 1 1 1 2 4 6 7 9 10 12 14 15 16 17 18 19 19 20 21 22 23 23 23 23 23 24 25 26 27 27 29 30 28 29 30 29 30 30 29 28 27 27 27 27 27 27 26 26 26 25 25 26 25 25 24 24 23 22 22 20 19 19 17 14 16 16
3 5 9 10 7 6 5 4 3 1 3 2 2 3 3 5 6 4 1 2 3 2 2 3 3 2 2 2 2 1 1 1 1 1 2 4 5 6 8 10 11 13 13 15 17 18 19 19 19 19 20 20 20 20 20 20 22 23 24 27 29 32 33 30 29 31 32 32 31 30 30 30 29 29 29 29 29 28 28 28 28 28 28 28 27 27 27 26 25 24 23 22 22 21 19 20 19
3 3 5 7 7 7 7 6 4 3 2 2 1 3 2 4 6 3 1 2 5 5 5 4 4 4 4 4 3 2 2 1 1 1 2 3 4 5 7 8 10 12 13 16 18 19 19 20 20 20 20 21 21 21 20 20 22 25 27 31 33 34 34 32 30 31 31 30 31 31 30 30 29 29 28 28 28 27 27 27 27 27 27 27 27 27 27 25 25 24 24 24 24 24 23 22 21
4 1 5 6 6 6 5 6 3 1 2 3 3 1 1 5 5 3 3 3 7 8 7 6 6 6 5 5 5 3 3 2 2 2 2 3 4 5 6 8 10 12 14 17 19 20 20 21 21 22 22 23 23 23 23 23 24 26 29 32 34 34 33 32 30 30 29 29 29 29 29 28 28 27 27 26 26 25 25 25 25 25 25 25 24 24 23 22 22 22 22 22 22 22 22 21 20
3 6 7 5 5 5 4 4 3 3 1 5 5 4 3 4 4 2 2 3 8 6 5 7 7 6 6 6 5 4 3 2 3 3 3 3 4 5 7 9 11 13 15 18 20 21 21 22 22 23 24 24 24 23 23 24 25 26 28 30 32 32 31 30 29 28 27 27 28 28 27 27 26 25 25 24 24 24 23 23 23 23 23 22 22 21 21 20 20 19 19 19 18 19 18 18 18
6 7 6 6 5 4 3 2 3 2 3 6 6 6 4 3 4 4 3 4 5 3 3 5 6 6 7 6 5 5 4 3 3 4 4 5 5 7 8 10 12 13 16 18 21 21 22 22 23 24 24 24 24 23 23 24 24 25 26 27 29 30 28 27 26 26 25 25 26 26 25 25 25 24 23 23 22 22 21 21 21 21 20 20 20 20 19 19 18 17 16 16 16 16 15 15 14
5 4 4 4 3 3 3 4 3 1 5 5 4 2 4 4 4 4 5 5 5 5 5 8 10 10 9 7 6 5 5 5 4 3 5 6 7 8 9 11 12 14 16 18 20 21 22 22 22 24 24 23 23 23 23 23 23 24 25 25 26 26 24 24 24 25 23 23 24 24 24 23 23 22 21 21 21 19 19 19 18 18 18 19 18 18 17 17 16 15 15 15 15 15 14 14 13
4 4 5 4 2 2 2 3 1 3 6 4 2 1 3 5 6 7 7 6 6 6 4 7 11 11 9 8 7 6 5 5 5 4 4 7 9 9 10 11 12 14 16 18 19 21 21 21 22 23 24 23 22 22 22 22 23 23 23 23 23 22 22 22 22 23 22 21 21 21 21 21 20 20 19 20 19 17 17 17 17 17 17 17 17 16 16 15 15 15 16 15 15 15 14 14 14
4 5 5 4 2 1 2 3 2 3 4 2 2 2 2 3 5 7 7 4 3 3 2 2 5 8 9 8 7 6 6 6 5 5 4 7 10 11 11 12 13 14 16 17 19 20 21 21 21 23 23 22 21 21 21 22 22 21 20 20 20 20 20 21 21 20 20 19 18 19 19 19 19 19 18 18 17 15 15 15 15 15 16 16 16 16 16 16 16 16 16 16 16 16 15 14 14
4 4 5 4 4 4 4 4 3 3 2 2 2 2 3 3 3 5 3 3 3 2 2 1 1 4 6 6 6 6 7 6 5 5 6 9 12 12 12 13 13 14 15 17 19 19 20 21 21 22 23 21 20 20 20 21 21 20 19 19 18 18 19 19 19 18 18 17 17 17 18 18 17 17 16 15 14 13 13 13 13 14 14 14 15 15 15 15 16 16 16 16 16 16 15 16 15
2 2 5 3 4 4 2 3 4 2 2 3 2 3 3 3 2 3 2 3 3 2 1 1 2 3 6 6 7 8 7 7 6 5 7 10 13 13 14 14 14 15 16 17 19 19 20 21 21 21 21 20 19 19 19 20 20 19 18 17 17 17 17 17 18 17 16 16 15 15 16 16 15 14 13 12 12 11 12 12 12 13 14 14 15 15 16 16 17 17 17 17 17 17 16 16 16
2 2 4 4 3 6 3 1 1 3 1 3 2 3 4 1 3 3 4 5 3 1 2 2 4 5 7 8 8 9 9 8 7 7 7 10 13 15 16 16 16 16 17 18 19 19 20 20 21 21 21 20 19 18 19 19 18 18 17 16 16 16 15 15 16 15 15 14 14 14 14 13 12 12 11 11 11 12 12 13 14 15 16 17 17 18 19 19 20 20 20 20 20 20 20 19 19
6 3 5 3 2 4 3 1 2 3 3 4 2 4 3 2 2 3 4 5 6 3 2 2 4 6 9 9 9 10 9 7 7 7 8 11 15 16 17 17 17 17 18 18 19 19 20 20 20 20 21 20 19 18 18 17 16 16 16 15 15 14 14 14 14 14 12 12 12 12 12 11 11 11 11 11 12 13 14 15 16 17 18 18 19 19 20 20 21 21 21 21 21 21 22 21 21
4 4 3 4 3 2 2 2 2 1 3 5 2 4 4 4 4 3 4 9 9 6 4 4 7 10 10 10 11 11 9 8 8 7 7 10 15 17 18 18 17 18 18 19 19 20 20 20 19 20 20 19 19 18 17 16 15 15 15 14 14 13 13 13 12 12 10 10 11 11 10 10 10 10 10 11 12 13 14 15 15 16 17 17 18 18 19 19 20 20 20 21 21 21 22 22 22
2 2 2 2 2 4 3 3 3 3 2 4 3 2 3 5 6 9 11 13 11 8 7 9 11 12 11 11 11 12 11 11 9 7 6 10 16 18 18 19 19 19 19 19 20 20 21 21 20 20 20 19 18 17 17 16 14 14 14 14 13 12 11 11 11 10 9 9 9 8 7 7 7 7 8 9 10 11 13 14 15 16 16 17 17 18 18 19 19 20 20 20 21 21 22 23 23
3 4 4 2 1 2 1 1 3 3 3 2 3 4 3 3 4 8 10 9 9 10 10 11 10 11 11 10 10 11 11 10 7 6 7 11 15 17 18 19 20 20 20 20 21 21 21 21 21 21 20 19 19 17 16 15 14 14 13 12 12 10 10 9 9 8 7 7 6 5 5 5 5 6 7 8 9 11 12 13 14 16 17 17 18 18 19 19 20 20 20 20 21 22 22 23 24
6 6 7 7 5 4 2 3 2 2 2 4 3 5 5 3 2 4 4 3 4 7 8 8 8 10 10 9 8 9 8 7 6 7 9 12 15 17 19 20 21 21 22 22 21 21 21 22 21 21 20 20 19 17 16 15 15 13 12 11 11 10 9 8 7 7 6 6 5 4 4 4 5 6 7 8 10 11 12 14 15 16 17 17 18 18 19 19 19 20 20 20 21 22 23 24 24
Wind_Direction
359 358 354 351 346 335 346 45 87 342 69 85 328 80 241 239 307 308 318 324 329 239 218 265 221 197 218 184 197 187 170 165 166 105 80 221 8 154 179 163 123 173 178 178 177 178 180 179 177 181 186 185 184 181 180 182 181 180 178 179 174 165 159 153 146 140 136 137 134 130 127 123 120 113 112 107 105 106 103 97 86 85 94 98 97 86 74 69 53 40 40 32 30 45 58 57 54
2 2 356 350 354 2 259 56 95 346 52 82 282 170 277 302 325 252 201 160 208 242 274 268 235 247 188 165 168 143 178 219 195 176 281 276 17 149 184 175 114 173 180 180 179 180 182 182 178 181 188 185 184 185 183 184 188 187 184 182 176 169 162 157 152 149 146 144 140 136 132 126 123 120 118 110 107 107 116 109 86 87 89 93 94 80 69 68 50 20 15 19 21 13 4 1 2
359 359 353 352 13 35 87 38 89 53 70 85 294 236 303 335 244 231 216 220 230 269 302 255 206 213 101 30 154 126 5 255 224 215 285 352 36 61 180 177 123 164 182 181 181 182 184 185 181 182 189 188 184 187 187 187 191 191 188 186 179 172 166 161 157 159 156 149 146 144 139 133 129 125 121 116 109 110 129 122 98 94 88 96 89 71 65 60 41 15 2 13 21 8 350 331 318
353 357 347 339 66 33 62 40 114 113 98 142 329 263 267 201 240 255 246 250 259 289 298 175 176 213 113 11 276 130 330 281 227 196 306 19 19 30 169 174 134 154 178 184 185 185 187 187 184 183 189 190 188 189 191 192 193 197 193 188 182 176 173 167 166 172 165 156 152 152 148 143 137 131 128 127 116 107 130 130 111 104 99 96 84 73 55 29 18 14 6 12 19 15 7 349 327
355 8 2 58 114 34 101 65 102 89 135 179 84 277 252 217 256 287 271 283 276 256 184 128 66 294 109 345 166 128 307 289 320 252 290 15 14 90 164 171 148 150 174 184 189 189 190 190 186 185 191 193 194 194 195 197 196 202 201 194 188 181 181 173 174 182 171 162 159 160 156 152 150 147 141 124 105 97 120 127 121 119 111 97 87 76 45 20 13 14 11 14 14 8 5 359 347
10 32 35 69 101 102 119 75 93 83 183 178 99 262 272 227 239 287 296 307 273 234 231 87 57 321 71 289 216 192 297 357 335 314 320 351 9 116 166 172 154 149 171 182 191 193 193 192 190 188 193 196 197 199 199 200 199 203 205 202 198 193 191 180 181 185 179 169 162 164 163 158 157 149 138 117 78 67 100 119 124 115 109 102 86 70 51 37 26 28 20 3 358 354 353 352 352
17 24 33 63 66 37 96 97 137 123 168 183 162 242 280 251 229 318 324 323 214 305 27 30 347 102 357 315 323 266 321 341 320 317 321 331 352 130 164 172 159 156 172 181 189 194 196 195 194 192 194 197 197 200 202 201 203 206 209 208 206 207 199 192 194 188 185 181 167 164 161 155 152 147 155 137 63 50 89 116 118 112 112 100 82 73 60 45 27 23 11 350 347 345 343 342 348
23 31 337 72 42 25 87 108 161 176 128 227 241 233 259 261 195 10 331 318 220 324 360 309 303 99 337 4 47 289 17 1 329 317 315 336 21 132 161 168 166 161 173 182 186 192 198 199 198 196 196 199 200 201 204 204 205 208 212 215 215 213 206 206 208 195 189 188 181 175 174 162 163 181 194 197 53 49 94 120 122 128 117 102 90 74 40 30 15 356 348 346 345 344 343 341 347
30 37 155 74 78 33 52 73 152 225 261 250 258 248 259 261 175 155 324 305 282 270 290 284 311 49 324 5 318 278 10 354 342 359 14 43 62 124 159 161 152 182 172 181 186 192 198 203 204 202 200 201 205 204 208 208 207 211 213 216 218 215 209 208 208 200 192 192 191 187 202 196 197 215 209 216 128 65 101 130 140 148 123 100 75 15 359 4 3 350 339 341 347 351 354 352 351
34 24 123 77 80 53 31 218 226 237 252 250 261 252 247 216 185 171 222 280 327 295 287 204 101 30 325 345 331 335 358 348 11 51 61 74 72 111 155 157 71 18 167 184 189 196 199 206 209 209 207 204 209 209 211 213 212 215 217 220 220 218 214 207 205 204 197 196 196 193 207 209 215 230 226 225 200 133 129 149 161 153 121 90 39 13 359 1 5 347 333 337 346 351 353 354 354
38 2 93 80 74 104 163 201 262 274 273 291 287 255 232 191 182 102 230 272 347 308 290 104 99 134 100 346 289 16 22 22 37 36 48 75 76 106 144 151 123 101 150 186 192 202 201 207 212 214 213 209 213 214 215 219 217 219 223 226 225 224 220 216 212 209 206 202 203 202 208 214 224 237 239 235 212 186 168 169 174 154 124 83 30 18 5 7 7 336 328 333 340 344 346 348 350
83 344 60 83 116 161 177 179 270 290 302 331 7 277 188 159 145 110 258 289 4 323 269 160 66 152 51 4 200 19 31 21 14 14 20 40 43 67 70 134 154 150 147 174 191 208 207 208 213 216 218 215 215 217 221 223 220 220 225 228 229 231 227 228 224 218 217 211 211 212 213 221 230 241 246 243 233 208 188 186 179 166 154 94 37 22 14 10 355 336 328 329 334 340 345 342 340
115 142 81 91 156 152 145 154 274 309 338 324 191 267 146 143 202 184 191 305 354 6 299 195 157 100 7 291 250 358 18 4 359 9 1 10 14 26 25 51 132 161 152 174 190 205 212 214 215 217 221 220 218 218 223 226 224 221 225 228 228 232 233 235 232 224 222 219 219 218 220 227 234 242 250 250 239 221 200 198 192 186 178 107 32 5 359 359 353 344 335 332 334 339 345 340 332
132 152 101 108 90 125 151 129 280 115 56 256 263 296 265 187 201 177 144 338 284 181 341 186 152 109 229 307 336 325 348 351 1 18 5 18 9 21 32 30 55 87 101 180 200 207 214 220 222 222 223 223 223 221 223 227 228 223 223 228 228 229 232 234 234 230 228 225 223 224 225 229 238 241 250 255 241 233 219 207 204 202 194 172 356 340 340 350 354 347 339 335 336 338 344 342 327
127 127 89 106 53 28 172 148 142 122 148 224 322 325 355 342 139 119 149 155 273 215 315 266 148 165 218 6 322 302 330 345 6 29 31 36 29 45 42 50 59 59 62 104 206 216 220 223 226 229 230 228 227 225 226 228 230 229 225 227 230 229 231 234 235 233 233 230 226 228 230 232 240 242 247 251 242 237 231 228 223 223 234 223 290 324 332 347 351 346 339 335 337 339 345 345 327
114 110 72 89 106 162 180 164 135 111 182 212 291 349 52 321 144 121 242 174 280 318 3 274 160 356 102 110 310 317 335 349 9 34 74 85 86 91 76 76 74 74 71 73 191 216 222 225 227 229 232 233 232 230 229 229 231 234 231 229 230 231 231 233 236 237 237 236 233 231 233 237 241 245 247 246 245 239 235 253 244 233 238 226 270 305 316 337 344 343 339 334 339 343 346 346 328
67 75 69 75 150 192 188 173 174 139 235 255 345 51 96 311 284 213 270 63 290 311 354 275 38 52 87 84 349 353 9 21 36 87 73 55 57 60 51 42 41 62 55 43 213 227 221 222 227 229 231 231 234 234 232 231 231 233 237 237 235 236 234 232 234 237 238 238 238 237 237 241 244 249 249 249 254 250 242 253 255 249 238 230 265 295 310 328 339 339 339 338 340 344 349 348 330
56 80 84 90 168 183 177 177 194 155 286 270 30 40 104 355 302 310 70 47 354 336 328 315 25 81 82 50 28 32 40 44 54 62 51 43 38 32 25 19 19 13 360 360 305 265 238 227 224 227 231 232 231 233 234 233 232 232 234 238 240 241 239 238 239 237 238 238 238 241 242 242 245 248 249 251 254 255 251 241 254 254 243 251 267 286 310 323 340 342 340 340 341 342 347 351 338
81 115 75 212 198 200 187 175 195 174 175 261 341 238 101 137 274 347 340 301 6 1 316 348 12 100 46 23 27 37 46 50 52 54 49 42 35 29 21 18 22 17 8 359 333 299 274 253 236 228 227 231 233 231 233 234 233 231 229 233 242 248 246 244 246 243 239 239 239 241 243 243 245 245 247 252 254 256 253 241 252 246 239 254 256 272 308 313 329 337 339 340 341 341 342 349 348
132 111 70 240 217 230 222 191 203 202 166 219 325 56 338 256 238 345 315 294 335 340 269 357 325 292 357 1 15 28 41 46 47 49 46 40 36 30 22 17 18 18 15 8 353 325 291 268 255 243 230 225 229 232 232 234 234 235 231 228 232 243 249 247 251 254 249 245 244 244 247 249 247 243 244 247 252 258 254 247 245 238 246 262 254 266 289 294 318 332 341 343 341 339 337 344 351
127 106 149 213 186 210 225 205 211 211 168 145 109 10 319 269 225 256 146 303 315 267 237 329 310 313 343 336 7 24 35 38 37 39 37 32 31 28 25 22 19 19 18 13 5 348 311 276 260 251 243 230 224 228 229 232 233 235 238 236 233 233 239 242 246 250 250 253 249 246 251 253 249 245 243 243 248 256 257 255 240 234 249 260 251 254 262 280 317 327 340 344 339 337 336 337 346
108 44 177 185 146 205 241 214 207 182 143 123 122 311 294 226 223 193 167 231 283 314 336 15 66 54 18 358 9 23 31 31 29 29 26 24 22 21 21 23 24 25 25 20 14 2 341 299 267 252 250 240 227 222 226 233 234 233 236 241 246 245 240 240 245 243 240 246 247 244 246 249 249 247 246 242 241 248 253 252 242 240 247 248 243 238 236 272 309 316 332 340 336 335 334 334 340
122 301 244 208 173 215 237 208 208 154 126 147 178 230 196 48 296 206 174 214 253 23 11 67 64 59 57 37 31 28 29 27 26 24 20 19 16 15 17 19 21 22 26 25 21 12 358 338 292 259 248 245 233 221 223 232 234 236 238 239 245 250 243 234 248 250 240 244 248 246 246 249 249 249 251 242 233 246 254 250 246 243 242 237 229 229 242 266 297 311 332 340 337 333 330 331 338
86 252 268 210 181 216 217 175 204 164 180 224 172 68 238 218 273 217 154 159 76 63 60 76 64 57 61 49 41 34 33 29 27 27 26 23 19 18 18 20 22 22 26 26 27 26 19 19 4 288 240 238 229 216 216 224 230 235 238 244 246 251 254 247 261 270 259 254 249 242 245 251 247 247 251 241 235 250 250 251 258 251 247 239 223 224 243 259 287 305 333 338 332 330 328 330 334
86 225 259 135 194 243 255 256 246 224 233 222 145 214 236 209 186 145 145 123 90 81 63 64 65 55 51 46 39 32 32 28 24 27 29 29 27 29 29 27 28 28 27 26 29 34 37 40 43 50 136 195 203 195 192 204 217 227 231 240 250 270 275 281 286 288 291 281 271 256 252 256 250 249 248 238 238 252 250 250 262 269 268 251 234 234 239 253 280 284 316 323 314 326 335 334 329
203 189 251 262 280 294 285 256 238 233 238 167 163 226 244 227 149 121 140 141 130 84 62 42 52 50 43 39 32 29 30 23 17 19 24 30 33 33 33 32 32 32 29 30 34 39 49 54 57 65 88 119 152 159 158 175 194 210 230 242 262 289 292 314 292 286 301 294 299 303 289 285 264 257 255 245 240 250 259 249 253 277 281 267 256 254 245 249 269 271 296 305 308 338 342 336 325
188 154 263 259 298 302 259 250 258 242 232 178 191 234 246 261 189 207 191 159 146 76 55 29 51 50 41 38 31 30 28 21 15 17 22 25 29 27 28 33 36 37 37 40 43 47 57 63 67 71 81 93 106 121 131 143 150 158 161 166 213 267 305 335 300 279 309 311 316 325 328 348 304 274 270 270 255 262 275 260 258 271 279 274 265 259 246 240 249 270 291 295 317 347 338 333 324
84 27 306 294 325 306 268 278 291 319 248 174 171 218 289 315 249 232 196 158 113 79 61 31 48 42 34 39 35 33 25 21 20 23 21 16 16 17 20 29 35 43 47 49 53 59 67 72 75 79 85 94 101 107 115 121 121 127 132 141 166 142 119 136 173 278 305 312 321 323 342 336 288 278 277 304 313 298 288 278 276 275 279 272 259 258 249 238 242 272 288 285 301 343 333 331 327
39 35 332 309 346 329 317 330 305 353 302 167 151 257 335 323 257 231 146 137 98 79 64 35 44 32 27 33 35 41 27 23 25 23 18 13 15 16 18 25 33 45 54 59 65 71 76 81 85 90 96 101 105 109 114 117 118 120 120 117 118 105 87 98 102 51 26 6 333 302 307 307 279 276 286 275 307 317 316 304 300 297 283 258 257 263 252 244 255 282 291 281 253 278 308 315 323
292 42 46 312 350 329 310 355 331 346 90 154 118 289 304 289 274 263 168 152 111 68 50 28 30 23 16 22 31 40 30 25 24 20 18 18 19 20 23 28 37 46 56 67 73 78 83 88 92 97 101 105 107 111 114 115 113 111 110 104 103 106 91 79 79 71 61 50 43 41 332 322 322 325 315 292 299 316 314 300 296 303 297 279 276 272 255 254 269 284 290 278 258 263 279 291 302
318 355 46 349 347 287 297 338 342 346 28 44 106 234 272 250 270 334 262 195 144 79 48 20 14 19 6 17 32 32 31 29 26 24 23 24 24 26 29 33 43 52 61 71 77 83 88 92 95 98 101 105 107 109 110 110 111 110 109 106 102 102 98 86 79 74 67 60 58 64 60 42 30 5 317 303 303 292 287 288 288 289 294 296 290 278 264 263 273 282 280 270 267 272 282 291 299
25 309 308 343 175 271 307 324 8 211 312 23 103 218 278 226 242 340 348 219 146 109 80 11 10 10 7 13 31 31 26 28 29 30 29 29 30 32 35 39 48 57 66 75 82 89 94 95 97 100 101 103 104 106 106 106 108 108 106 104 103 100 95 87 81 77 75 72 70 70 68 64 60 53 44 14 339 304 291 300 310 305 295 292 289 284 278 276 281 284 281 274 271 275 282 285 291
359 351 253 270 198 270 317 316 277 193 258 3 56 226 289 224 231 322 7 154 124 121 178 351 34 5 21 20 26 35 23 21 22 23 26 33 36 39 43 46 53 61 70 80 86 92 96 99 101 102 102 103 104 105 106 106 106 106 104 101 98 95 91 88 85 83 81 77 74 72 70 68 66 64 62 59 63 68 59 44 26 359 337 322 308 303 303 303 300 294 293 291 288 290 293 294 303
303 4 237 252 216 215 292 294 334 45 105 344 17 245 266 228 197 311 357 79 126 148 187 174 102 25 29 25 27 35 26 23 8 7 17 29 41 50 55 57 61 69 76 84 88 93 98 101 104 105 105 106 106 106 106 106 105 103 101 99 97 94 92 90 87 83 79 75 73 70 67 64 64 66 66 67 69 70 70 69 64 50 33 35 44 34 18 354 346 342 332 327 318 312 314 321 324
189 187 206 252 242 224 253 261 283 26 35 332 355 294 274 260 194 346 352 33 139 168 176 133 92 51 37 31 35 31 24 26 1 3 16 27 42 56 64 68 70 76 83 89 93 97 101 103 106 108 110 110 110 111 110 108 107 102 98 98 97 93 90 87 84 80 77 74 71 68 65 64 65 67 68 69 68 69 69 67 66 64 59 63 68 63 59 54 47 36 22 15 6 1 354 344 337
163 171 158 190 229 247 231 233 265 348 14 298 271 257 271 271 244 104 357 12 108 159 110 81 57 38 36 35 35 28 28 15 359 9 23 30 40 55 67 73 75 82 88 93 99 102 104 105 108 109 110 112 114 115 114 113 110 106 102 99 93 88 86 85 82 79 76 74 72 69 66 65 65 64 64 62 61 61 62 63 64 64 63 63 63 64 64 59 53 48 44 35 27 28 21 10 359
130 134 136 190 220 258 242 226 291 346 96 265 246 245 264 269 269 317 360 13 83 106 51 47 33 35 27 33 26 18 26 360 4 23 32 35 43 56 68 77 83 87 90 95 100 102 103 106 109 108 109 113 114 113 113 112 109 107 104 98 92 88 87 87 84 80 78 76 74 72 69 67 64 61 58 55 55 56 59 62 63 63 61 59 60 63 63 60 53 46 46 43 39 38 35 27 13
115 136 169 226 222 250 260 228 310 347 178 261 309 278 266 261 265 311 11 170 123 309 78 44 33 50 22 38 22 4 7 351 15 29 31 36 46 57 68 77 83 86 87 92 96 98 102 106 108 107 109 112 111 111 111 107 105 105 102 98 95 91 89 88 86 83 83 82 79 76 74 72 70 68 65 62 62 61 61 61 61 61 60 60 64 64 60 57 53 48 48 49 50 51 52 41 26
120 124 164 239 227 251 288 305 331 15 175 264 7 335 272 262 246 247 13 171 184 324 139 165 173 128 69 57 28 12 13 358 13 21 24 33 44 57 68 73 79 84 88 93 96 98 102 104 105 106 107 107 106 107 108 106 105 105 103 100 98 94 90 89 89 88 86 85 83 81 79 77 76 74 72 70 68 66 64 63 61 60 59 56 57 56 53 52 49 47 46 50 57 60 61 48 35
165 153 170 230 215 190 270 288 322 18 142 248 9 330 280 271 247 191 16 144 152 63 118 127 144 149 147 172 175 118 63 15 17 15 19 32 45 55 62 67 76 85 91 94 97 100 102 104 105 106 107 106 107 107 106 107 107 106 105 102 100 97 94 94 93 90 87 86 84 82 80 79 78 76 74 72 70 69 66 65 64 62 60 57 54 53 52 49 47 45 43 43 47 52 56 48 42
228 205 200 213 202 204 231 267 315 349 21 77 107 330 293 284 271 249 286 110 142 69 114 109 106 160 155 164 183 188 171 137 33 15 13 28 43 52 59 67 77 85 90 93 97 101 104 108 110 111 112 110 110 110 110 111 111 110 108 106 103 99 95 93 89 85 84 84 82 81 80 79 79 78 76 75 73 73 71 70 69 67 65 62 59 58 57 54 51 48 45 43 45 48 53 53 51
265 229 208 210 207 208 220 5 30 13 338 286 141 283 287 314 293 253 282 344 270 6 142 193 261 230 162 174 204 222 152 147 103 48 23 37 51 61 69 75 81 86 91 95 101 106 110 114 117 118 117 116 115 115 116 117 115 115 115 111 105 99 91 85 84 85 85 85 84 84 83 82 81 80 79 78 77 76 75 74 73 72 71 68 66 65 63 60 56 53 50 49 49 48 48 52 51
271 244 203 203 195 182 179 144 114 169 247 270 118 175 251 313 305 267 281 296 272 276 236 228 240 232 207 209 221 221 170 113 105 77 60 66 68 72 74 78 85 89 95 102 107 111 114 117 119 121 121 122 123 123 125 125 122 120 116 109 104 100 96 91 91 92 91 91 90 89 87 84 83 82 80 79 78 77 76 76 75 74 73 71 70 68 66 63 61 59 58 56 56 53 52 53 48
239 253 161 166 170 177 180 163 174 227 255 320 14 147 209 288 287 285 327 277 271 255 234 230 227 218 217 223 222 209 201 180 165 131 79 84 82 83 85 88 93 98 104 110 112 113 116 117 118 119 120 122 125 127 129 128 123 117 111 106 103 102 102 101 99 97 96 96 94 90 88 86 84 83 81 80 79 78 77 76 75 74 74 72 70 69 67 66 65 63 61 60 59 57 56 56 52
242 199 117 136 151 162 153 146 179 315 353 294 292 135 200 262 271 325 20 292 271 247 217 212 215 212 211 217 217 207 201 191 187 182 129 104 101 100 101 102 105 110 112 113 114 116 118 119 120 120 120 120 123 125 124 120 116 112 109 107 105 105 105 104 103 101 99 98 95 92 90 88 86 83 82 80 79 78 77 76 75 74 73 72 71 70 68 66 64 62 59 58 58 57 57 56 55
194 118 93 77 71 81 91 117 122 53 9 249 237 184 202 269 279 311 39 271 262 245 207 206 205 203 205 211 208 197 196 195 189 180 158 133 124 117 115 116 116 116 116 116 117 119 120 121 122 120 118 119 119 119 117 114 113 111 110 110 109 109 109 108 107 103 101 99 96 94 91 89 86 84 82 79 78 76 75 75 73 72 72 71 70 69 67 64 62 60 58 56 56 56 54 53 53
139 107 76 58 44 47 53 66 91 75 270 250 230 198 190 267 274 236 202 224 214 167 185 210 197 199 206 207 200 190 191 190 187 180 165 152 140 133 131 127 124 122 121 121 120 120 121 121 120 117 115 116 116 116 114 113 113 111 111 112 112 114 114 112 108 103 101 99 96 94 91 89 86 84 82 79 76 74 73 71 70 69 68 66 64 61 59 57 55 54 53 51 50 50 48 46 45
112 92 96 93 10 16 26 359 51 156 251 259 259 209 173 221 256 239 230 235 197 167 184 193 192 199 201 197 195 190 190 188 186 184 172 163 153 146 143 136 131 131 128 125 124 123 122 122 121 118 116 117 117 117 116 115 114 113 113 114 114 115 115 111 107 103 101 99 97 96 93 90 86 83 80 76 72 69 67 66 64 63 60 56 54 51 49 47 44 41 39 39 37 36 35 31 28
89 98 116 113 346 5 355 296 246 225 246 264 283 204 194 228 247 248 239 231 214 202 194 190 193 194 189 190 192 186 189 190 188 188 180 175 168 158 152 145 141 139 134 130 128 127 127 126 125 123 120 121 121 120 119 118 116 115 116 116 115 114 113 110 107 104 102 99 98 96 91 87 83 77 73 69 64 59 58 56 53 51 49 46 43 40 39 35 33 30 28 27 26 25 23 20 18
154 150 142 136 133 142 249 259 259 258 257 288 286 239 243 259 263 255 241 233 228 211 217 230 208 192 185 188 185 183 194 195 191 190 185 185 180 170 161 155 150 145 139 135 133 132 132 131 130 127 124 125 125 123 122 120 117 116 117 116 115 115 112 109 107 104 102 99 95 91 87 83 79 74 69 64 59 53 50 46 42 40 37 34 31 28 26 23 20 19 17 15 14 15 13 9 9
178 161 134 147 160 170 214 217 213 245 277 324 301 232 194 198 270 279 263 295 315 294 259 270 255 194 173 171 176 186 200 200 194 190 192 195 186 175 169 164 159 152 145 141 139 139 138 136 135 132 130 129 129 126 124 122 119 117 117 116 115 114 112 109 106 103 101 97 93 90 87 83 79 75 69 64 57 50 45 40 35 31 28 25 21 18 15 13 12 10 9 8 4 4 3 359 358
200 129 110 172 191 151 162 195 173 177 309 305 240 228 222 201 268 300 322 318 307 346 7 157 201 180 157 173 191 194 204 202 194 194 199 197 187 179 176 173 167 159 153 149 146 145 144 142 140 137 134 134 132 130 127 123 122 120 119 117 115 113 111 108 106 104 101 98 94 90 87 84 80 75 69 61 52 43 36 30 25 22 19 15 11 9 7 5 4 3 2 2 359 358 358 356 354
152 140 171 209 181 119 114 236 70 79 276 266 196 234 292 307 284 315 360 324 283 69 50 177 193 179 174 194 199 198 206 200 195 199 196 190 184 183 184 179 173 165 160 157 153 152 151 149 147 143 139 138 136 134 131 128 128 127 124 121 117 113 110 106 105 103 100 97 92 88 85 82 79 72 63 52 41 32 24 19 15 12 10 7 4 2 360 359 358 357 357 357 355 354 354 354 353
125 182 207 180 133 96 104 219 353 51 242 270 210 213 246 184 244 318 354 295 257 200 165 198 197 192 195 204 203 203 204 197 198 200 192 186 184 186 187 183 178 172 166 163 159 157 156 155 154 150 146 143 141 138 136 135 134 131 126 122 117 113 109 105 102 99 95 92 86 83 79 73 66 54 43 34 25 19 14 9 6 4 2 359 357 355 353 353 351 351 351 351 350 348 348 349 348
136 187 180 117 149 170 112 172 217 178 238 282 259 213 222 189 201 218 212 235 234 201 178 202 207 203 203 205 205 204 199 197 202 196 184 184 185 188 187 183 180 177 172 168 165 163 160 159 157 153 150 146 144 143 141 139 137 131 125 121 116 111 107 102 97 93 89 83 76 71 64 55 48 37 27 19 11 7 4 360 358 356 353 351 349 347 345 344 344 343 343 343 343 342 341 342 342
74 112 123 88 151 165 154 160 164 165 209 270 271 238 230 217 197 180 193 213 208 180 186 212 212 207 205 204 201 199 198 201 199 182 176 185 189 190 186 184 184 181 178 174 171 169 166 163 160 157 153 150 148 148 146 142 139 134 127 121 115 111 106 99 95 91 85 80 73 67 58 47 37 24 12 4 358 355 353 351 350 348 346 344 342 341 339 339 340 339 340 339 339 339 338 338 338
148 153 168 180 117 116 177 199 133 135 164 209 271 282 245 229 201 179 193 210 194 181 196 211 213 209 211 210 203 202 202 199 185 168 179 187 188 188 185 187 188 184 182 180 177 175 171 169 167 164 161 157 154 153 151 148 142 137 132 125 121 116 110 105 103 100 94 88 81 69 56 37 20 6 357 351 347 346 345 345 344 344 343 343 341 341 340 340 340 340 340 340 339 338 338 337 336
173 182 181 181 168 132 164 242 199 124 175 178 207 269 253 218 194 187 196 220 209 205 208 212 215 213 213 214 209 207 201 187 173 172 182 184 183 183 185 188 189 187 186 184 182 180 177 176 175 173 170 167 163 161 159 155 148 143 139 134 131 127 123 120 117 112 103 95 85 71 56 32 12 360 351 346 344 344 344 343 344 344 343 343 342 342 341 340 340 339 338 338 338 338 337 336 335